DELTA 1 DEB, 26837

Orbit data source: Space-Track

DELTA 1 DEB, 26837 is space debris in SSO originally from a launch on Thu, 12 Jun 1975 UTC launched from the Air Force Western Test Range (AFWTR). Debris objects in space refer to the collection of defunct objects orbiting the Earth. Examples of debris include non-operational satellites, rocket bodies, and fragments generated from explosions, collisions, or faulty payload assembly.

Loading next visibility...
Identifier
26837, 1975-052KR
Orbit
SSO
Country
Flag of USUS
Related business
Manufacturer
Unknown
Mission
Spacecraft
Bus & Motor
Unknown
Mass
Unknown
Launch date (UTC)
1975-06-12 (51 years ago)
Launch vehicle
Unknown
Launch site
Air Force Western Test Range (AFWTR)
Object type
Payload
Rocket body
Debris
Shape & HBR
Unknown shape, 0.1 m
Radar Cross Section
Small (<0.1 m²)

Expand to show TLE details & history
Last TLE update: 3 days ago

TLE from 3 days ago
0 DELTA 1 DEB
1 26837U 75052KR  25348.45401723  .00000875  00000-0  23111-2 0  9993
2 26837  99.6823 178.1240 0284099 311.0787  74.3929 13.05599545227592
Epoch: 2025-12-14T10:53Z
TLE epoch observation values (Epoch: 2025-12-14T10:53:47.088Z)
Latitude
28.23348°
Longitude
-73.91848°
Altitude
1,191.079 km
Speed
7.286 km/s
True Right ascension
11h 31m 34s
True Declination
28° 05' 55"
Sunlit
Object was in daylight at epoch
Visualization orbit readout
Latitude
Unknown
Longitude
Unknown
Altitude
Unknown
Speed
Unknown
Apparent Right ascension
Unknown
Apparent Declination
Unknown
Sunlit
N/A
Visualization observer readout
Local Sidereal Time
06:25:31
Azimuth
Unknown
Elevation
Unknown
Doppler factor
Unknown
Orbital elements
Apogee altitude
1,453.948 km
Perigee altitude
1,021.224 km
Semi-major axis
7,615.723 km
Eccentricity
0.02841
Inclination
99.6823°
RAAN
178.124°
Arg. of periapsis
311.0787°
True anomaly
77.55702°
Mean anomaly
74.3929°
Eccentric anomaly
75.97212°
Mean motion
3.2657 °/min
Orbital period
110.24 mins
BSTAR
0.0023111
Loading maneuver chart data...
Computing Atmospheric mass density...

Documentation

Showing up to 5 results
|